| time (UTC) | temp C | wind direction | speed KPH | gust KPH | rain 1hr cm | rain 24hr cm | rain mn cm | humidity % | barometer mb |
| 20260506061604 | 6 | 354 | 0.0 | 0.0 | 0.00 | 0.03 | 0.00 | 86 | 1005.2 |
| 20260506044556 | 9 | 180 | 0.0 | 0.0 | 0.00 | 0.03 | 0.00 | 86 | 1005.3 |
| 20260506043052 | 9 | 179 | 0.0 | 0.0 | 0.00 | 0.03 | 0.00 | 85 | 1005.2 |
| 20260506041530 | 9 | 179 | 0.0 | 0.0 | 0.00 | 0.03 | 0.00 | 84 | 1005.5 |
| 20260506040029 | 10 | 179 | 0.0 | 0.0 | 0.00 | 0.03 | 0.00 | 84 | 1005.4 |
| 20260506034510 | 10 | 179 | 0.0 | 0.0 | 0.00 | 0.03 | 0.03 | 84 | 1005.4 |
| 20260506033009 | 10 | 179 | 0.0 | 0.0 | 0.00 | 0.03 | 0.03 | 84 | 1005.4 |
| 20260506031553 | 10 | 179 | 0.0 | 0.0 | 0.00 | 0.03 | 0.03 | 85 | 1005.5 |
| 20260506030051 | 10 | 179 | 0.0 | 0.0 | 0.00 | 0.03 | 0.03 | 86 | 1005.5 |
| 20260506024533 | 10 | 179 | 0.0 | 0.0 | 0.00 | 0.03 | 0.03 | 86 | 1005.6 |
| 20260506023031 | 10 | 179 | 0.0 | 0.0 | 0.00 | 0.03 | 0.03 | 86 | 1005.2 |
| 20260506021513 | 10 | 179 | 0.0 | 0.0 | 0.00 | 0.03 | 0.03 | 86 | 1005.2 |
| 20260506020023 | 10 | 179 | 0.0 | 0.0 | 0.00 | 0.03 | 0.03 | 86 | 1005.2 |
| 20260506014555 | 10 | 179 | 0.0 | 0.0 | 0.00 | 0.08 | 0.03 | 85 | 1005.2 |
| 20260506013054 | 10 | 179 | 0.0 | 0.0 | 0.00 | 0.08 | 0.03 | 85 | 1005.0 |
| 20260506011539 | 10 | 179 | 0.0 | 0.0 | 0.00 | 0.08 | 0.03 | 84 | 1005.0 |
| 20260506010035 | 10 | 179 | 0.0 | 0.0 | 0.00 | 0.08 | 0.03 | 84 | 1004.9 |
| 20260506004524 | 10 | 179 | 0.0 | 0.0 | 0.00 | 0.08 | 0.03 | 83 | 1004.7 |
| 20260506003019 | 11 | 179 | 0.0 | 0.0 | 0.00 | 0.08 | 0.03 | 82 | 1004.5 |
| 20260506001607 | 11 | 179 | 0.0 | 0.0 | 0.00 | 0.08 | 0.03 | 82 | 1004.5 |
| 20260506000124 | 11 | 179 | 0.0 | 0.0 | 0.00 | 0.08 | 0.03 | 81 | 1004.3 |
| 20260505234548 | 11 | 178 | 0.0 | 0.0 | 0.00 | 0.08 | 0.03 | 81 | 1004.2 |
| 20260505233052 | 11 | 178 | 0.0 | 0.0 | 0.00 | 0.08 | 0.03 | 81 | 1004.2 |
| 20260505231553 | 11 | 178 | 0.0 | 0.0 | 0.00 | 0.08 | 0.03 | 82 | 1004.3 |
| 20260505230050 | 11 | 177 | 0.0 | 0.0 | 0.00 | 0.08 | 0.03 | 82 | 1004.3 |
| 20260505224549 | 11 | 179 | 0.0 | 0.0 | 0.00 | 0.08 | 0.03 | 82 | 1004.4 |
| 20260505223045 | 11 | 164 | 0.0 | 0.0 | 0.00 | 0.08 | 0.03 | 81 | 1004.4 |
| 20260505221550 | 11 | 165 | 0.0 | 0.0 | 0.00 | 0.08 | 0.03 | 82 | 1004.4 |
| 20260505214534 | 10 | 188 | 0.0 | 0.0 | 0.00 | 0.08 | 0.03 | 82 | 1004.5 |
| 20260505213033 | 10 | 189 | 0.0 | 0.0 | 0.00 | 0.08 | 0.03 | 82 | 1004.4 |
| 20260505211555 | 10 | 184 | 0.0 | 0.0 | 0.00 | 0.08 | 0.03 | 81 | 1004.5 |
| 20260505210038 | 10 | 189 | 0.0 | 0.0 | 0.00 | 0.08 | 0.03 | 81 | 1004.5 |
| 20260505204537 | 10 | 183 | 0.0 | 0.0 | 0.00 | 0.08 | 0.03 | 81 | 1004.4 |
| 20260505203032 | 10 | 174 | 0.0 | 0.0 | 0.00 | 0.08 | 0.03 | 80 | 1004.6 |
| 20260505201537 | 10 | 169 | 0.0 | 0.0 | 0.00 | 0.08 | 0.03 | 79 | 1004.8 |
| 20260505200033 | 10 | 176 | 0.0 | 0.0 | 0.00 | 0.08 | 0.03 | 79 | 1004.9 |
| 20260505194531 | 10 | 172 | 0.0 | 0.0 | 0.00 | 0.08 | 0.03 | 78 | 1005.0 |
| 20260505193015 | 10 | 174 | 0.0 | 0.0 | 0.00 | 0.08 | 0.03 | 77 | 1005.1 |
| 20260505191518 | 10 | 156 | 0.0 | 0.0 | 0.00 | 0.08 | 0.03 | 76 | 1004.9 |
| 20260505190114 | 10 | 69 | 0.0 | 0.0 | 0.00 | 0.08 | 0.03 | 75 | 1004.6 |
| 20260505184600 | 9 | 69 | 0.0 | 0.0 | 0.00 | 0.08 | 0.03 | 75 | 1004.6 |
| 20260505183059 | 9 | 68 | 0.0 | 0.0 | 0.00 | 0.08 | 0.03 | 75 | 1004.6 |
| 20260505181641 | 9 | 68 | 0.0 | 0.0 | 0.00 | 0.08 | 0.03 | 78 | 1004.3 |
| 20260505180105 | 9 | 68 | 0.0 | 0.0 | 0.03 | 0.08 | 0.03 | 80 | 1004.4 |
| 20260505174557 | 8 | 62 | 0.0 | 0.0 | 0.03 | 0.08 | 0.03 | 79 | 1004.1 |
| 20260505173056 | 8 | 62 | 0.0 | 0.0 | 0.03 | 0.08 | 0.03 | 80 | 1004.3 |
| 20260505171603 | 7 | 58 | 0.0 | 0.0 | 0.03 | 0.08 | 0.03 | 78 | 1004.2 |
| 20260505170039 | 8 | 49 | 0.0 | 0.0 | 0.00 | 0.05 | 0.00 | 76 | 1004.2 |
| 20260505164538 | 8 | 41 | 0.0 | 0.0 | 0.00 | 0.05 | 0.00 | 73 | 1003.9 |
| 20260505163021 | 8 | 10 | 0.0 | 0.0 | 0.00 | 0.05 | 0.00 | 72 | 1004.1 |
| 20260505161520 | 8 | 14 | 0.0 | 0.0 | 0.00 | 0.05 | 0.00 | 70 | 1004.5 |
| 20260505153045 | 8 | 13 | 0.0 | 0.0 | 0.00 | 0.05 | 0.00 | 68 | 1003.6 |
| 20260505151541 | 7 | 24 | 0.0 | 0.0 | 0.00 | 0.05 | 0.00 | 75 | 1003.7 |
| 20260505124502 | 7 | 354 | 0.0 | 0.0 | 0.00 | 0.05 | 0.00 | 78 | 1001.8 |
| 20260505123051 | 7 | 21 | 0.0 | 0.0 | 0.00 | 0.05 | 0.00 | 77 | 1001.5 |
| 20260505121542 | 7 | 53 | 0.0 | 0.0 | 0.00 | 0.05 | 0.00 | 79 | 1000.8 |
| 20260505120023 | 7 | 9 | 0.0 | 0.0 | 0.00 | 0.05 | 0.00 | 80 | 1001.2 |
| 20260505114521 | 7 | 10 | 0.0 | 0.0 | 0.00 | 0.05 | 0.00 | 79 | 1000.3 |
| 20260505113003 | 6 | 14 | 0.0 | 0.0 | 0.00 | 0.05 | 0.00 | 83 | 1000.2 |
| 20260505111504 | 7 | 342 | 0.0 | 0.0 | 0.00 | 0.05 | 0.00 | 83 | 1000.2 |
| 20260505110104 | 6 | 24 | 0.0 | 0.0 | 0.00 | 0.05 | 0.00 | 84 | 999.6 |
| 20260505101520 | 6 | 11 | 0.0 | 0.0 | 0.00 | 0.05 | 0.00 | 89 | 999.1 |
| 20260505100100 | 6 | 10 | 0.0 | 0.0 | 0.00 | 0.05 | 0.00 | 89 | 998.9 |
| 20260505094557 | 6 | 29 | 0.0 | 0.0 | 0.00 | 0.05 | 0.00 | 88 | 998.3 |
| 20260505093035 | 8 | 23 | 0.0 | 0.0 | 0.00 | 0.05 | 0.00 | 81 | 998.0 |
| 20260505091533 | 13 | 196 | 0.0 | 0.0 | 0.00 | 0.05 | 0.00 | 85 | 997.0 |
| 20260505090012 | 13 | 186 | 0.0 | 0.0 | 0.00 | 0.05 | 0.00 | 84 | 996.6 |
| 20260505084510 | 13 | 195 | 0.0 | 0.0 | 0.00 | 0.05 | 0.00 | 84 | 996.4 |
| 20260505083105 | 14 | 183 | 0.0 | 0.0 | 0.00 | 0.05 | 0.00 | 84 | 996.3 |
| 20260505081553 | 14 | 218 | 0.0 | 0.0 | 0.00 | 0.05 | 0.00 | 83 | 996.2 |
| 20260505080035 | 14 | 195 | 0.0 | 0.0 | 0.00 | 0.05 | 0.00 | 84 | 996.1 |
| 20260505074535 | 15 | 192 | 0.0 | 0.0 | 0.00 | 0.05 | 0.00 | 82 | 995.7 |
| 20260505073019 | 15 | 184 | 0.0 | 0.0 | 0.00 | 0.05 | 0.00 | 79 | 995.8 |
| 20260505071517 | 16 | 177 | 0.0 | 0.0 | 0.00 | 0.05 | 0.00 | 76 | 995.9 |